Regional Weather Roundup
Issued by NWS Binghamton, NY

Home | Current Version | Previous Version | Text Only | Print | Product List | Glossary On
Versions: 1 2 3 4 5 6 7 8 9 10 11 12 13 14 15 16 17 18 19 20 21 22 23 24 25 26 27 28 29 30 31 32 33 34 35 36 37 38 39 40 41 42 43 44 45 46 47 48 49 50
000
ASUS41 KBGM 230810
RWRBGM
RWRBGM
BINGHAMTON REGIONAL WEATHER ROUNDUP
NATIONAL WEATHER SERVICE BINGHAMTON NY
300 AM EST SUN NOV 23 2014

Note: "fair" indicates few or no clouds below 12,000 feet with no
significant weather and/or obstructions to visibility.

* = Station(s) that does not report precipitation, such as rain,
snow, etc, also no thunder or fog.

!NYZ009-015>018-022>025-036-037-044>046-055>057-062-230900
...CENTRAL NEW YORK...

CITY           SKY/WX    TMP DP  RH WIND       PRES   REMARKS
BINGHAMTON     CLOUDY    38  30  73 SW10      30.06S WCI  31
CORTLAND       CLOUDY    41  41 100 SW3       30.06F
DANSVILLE      CLOUDY    46  38  73 SE7       30.03S
ELMIRA         CLOUDY    43  36  76 CALM      30.07S
ITHACA         CLOUDY    44  36  73 S9        30.06F
HAMILTON       CLOUDY    39  37  93 S5        30.05S
MONTICELLO     CLOUDY    37  23  56 W6        30.12F WCI  33
NORWICH        CLOUDY    37  34  87 S5        30.08S WCI  34
PENN YAN       CLOUDY    48  37  65 SW16G23   30.03S
ROME           LGT RAIN  38  38 100 E8        30.05S FOG     WCI  32
SIDNEY         CLOUDY    37  37 100 CALM      30.09F FOG
SYRACUSE       LGT RAIN  47  41  80 SW10      30.02S
$$

!PAZ038>040-043-044-047-048-072-230900
...NORTHEAST PENNSYLVANIA...

CITY           SKY/WX    TMP DP  RH WIND       PRES   REMARKS
HAZLETON       CLOUDY    43  19  39 CALM      30.15F
SCRANTON       CLOUDY    40  18  41 CALM      30.14R
TOWANDA*       MOCLDY    37  30  75 CALM      30.12F
$$
&&
KEY
WCI = WIND CHILL INDEX
VSB = VISIBILITY
HX  = HEAT INDEX
$$



USA.gov is the U.S. government's official web portal to all federal, state and local government web resources and services.